Simultaneous Nadir Overpasses (SNOs) Predictions

Prediction of SNOs between AURA and NPP Satellite Orbit:

Table of predicted SNOs for the next 14.0 days since TLE Epoch: 2/21/2012
Index Date (AURA) Time (AURA) AURA Lat,Lon Date (NPP) Time (NPP) NPP Lat,Lon Distance(km) Time Diff (sec)
1 02/23/2012 11:24:45 -79.78, 87.72 02/23/2012 11:23:48 -79.79, 87.86 2.78 57
2 02/23/2012 12:14:08 79.89,-103.78 02/23/2012 12:14:29 79.89,-103.90 2.39 21
3 02/26/2012 03:41:11 -79.85,-155.89 02/26/2012 03:40:42 -79.85,-155.85 0.75 29
4 02/26/2012 04:30:31 80.06, 13.47 02/26/2012 04:31:19 80.06, 13.58 2.29 48
5 02/28/2012 19:57:36 -79.90, -39.61 02/28/2012 19:57:35 -79.90, -39.59 0.57 1
6 02/28/2012 20:45:00 81.70, 174.64 02/28/2012 20:46:13 81.06, 173.87 71.65 73
7 03/02/2012 11:24:40
